METEOR 2-11 DEB, 40707

Orbit data source: Space-Track

METEOR 2-11 DEB, 40707 is space debris in LEO originally from a launch on Thu, 05 Jul 1984 UTC launched from the Plesetsk Missile And Space Complex (PKMTR). Debris objects in space refer to the collection of defunct objects orbiting the Earth. Examples of debris include non-operational satellites, rocket bodies, and fragments generated from explosions, collisions, or faulty payload assembly.

Loading next visibility...
Identifier
40707, 1984-072J
Orbit
LEO
Last TLE update
5 days ago
Origin
Manufacturer
Unknown
Mission
Spacecraft
Bus & Motor
Unknown
Mass
Unknown
Launch date (UTC)
1984-07-05 (41 years ago)
Launch vehicle
Unknown
Launch site
Plesetsk Missile And Space Complex (PKMTR)
Object type
Payload
Rocket body
Debris
Shape & HBR
Unknown
Radar Cross Section
Small (<0.1 m²)

Expand to show TLE details & history

TLE from 5 days ago
0 METEOR 2-11 DEB
1 40707U 84072J   25124.30117362  .00001705  00000-0  12301-2 0  9998
2 40707  82.5218 339.1755 0010382 103.2078 257.0247 13.96160586 47096
Epoch: 2025-05-04T07:13Z
Definitive object data (Epoch: 2025-05-04T07:13:41.4Z)
Latitude
-0.00011°
Longitude
8.32194°
Altitude
911.745 km
Speed
7.395 km/s
True Right ascension
22h 36m 42s
True Declination
0° 00' 00"
Sunlit
Object was in daylight at TLE epoch
Visualization TLE readout
Latitude
-23.81727°
Longitude
-172.42693°
Altitude
919.138 km
Speed
7.39 km/s
Apparent Right ascension
07h 39m 59s
Apparent Declination
-46° 52' 27"
Sunlit
Object is in full shadow
Visualization observer readout
Local Sidereal Time
15:01:35
Azimuth
237.583° WSW
Elevation
-40.623°
Doppler factor
1
Orbital elements
Apogee altitude
911.818 km
Perigee altitude
896.696 km
Semi-major axis
7,282.394 km
Eccentricity
0.0010382
Inclination
82.5218°
RAAN
339.1755°
Arg. of periapsis
103.2078°
True anomaly
256.9088°
Mean anomaly
257.0247°
Eccentric anomaly
256.96675°
Mean motion
3.49246 °/min
BSTAR
0.0012301
Orbital period
103.08 mins
Loading maneuver chart data...
Loading SW <> Apogee altitude chart data...
Loading historical data...
Loading historical data...
Loading historical data...
Loading historical data...
Loading historical data...
Loading historical data...
Loading historical data...

METEOR 2-11 DEB Visibility forecast

Observer location: undefined°, undefined°

Span
Click to sort rows by Start time (UTC) header in descending order
Start Az.
Max El. time (UTC)
Max El. Az.
Max El.
End time (UTC)
End Az.
4 mins2025-05-09 12:56:41.132Z102.964° ESE2025-05-09 12:58:41.132Z82.058° E12.679°2025-05-09 13:00:41.132Z60.908° ENE
10 mins2025-05-09 14:37:41.132Z192.636° SSW2025-05-09 14:41:41.132Z247.968° W44.253°2025-05-09 14:47:41.132Z4.997° NNE
10 mins2025-05-10 01:24:41.132Z358.019° N2025-05-10 01:29:41.132Z106.481° ESE43.457°2025-05-10 01:34:41.132Z165.775° S
|